Hourly Data Report for August 16, 2021

KUGLUKTUK A
NUNAVUT
Current Station Operator: NAVCAN

67°49'00.000" N
115°08'38.000" W
22.60 m
2300903
71938
YCO

Download Data

Hourly Data (August 2021)
Hourly Data Report for August 16, 2021
TIME
LST
Temp Definition
°C
Dew Point Definition
°C
Rel Hum Definition
%
Precip. Amount Definition
mm

Wind Dir Definition
10's deg

Wind Spd Definition
km/h
Visibility Definition
km
Stn Press Definition
kPa
Hmdx Definition


Wind Chill Definition


Weather Definition


00:00 7.4 6.6 94   2 9 24.1 100.43     LegendNANA
01:00 7.2 6.5 96   36 9 24.1 100.43     LegendNANA
02:00 6.7 5.9 95   2 9 24.1 100.41     Mostly Cloudy
03:00 6.7 5.9 95   2 11 24.1 100.39     LegendNANA
04:00 6.9 6.3 96   3 5 24.1 100.40     LegendNANA
05:00 6.9 6.4 96   35 10 24.1 100.39     Mostly Cloudy
06:00 7.0 6.4 96   36 8 24.1 100.41     LegendNANA
07:00 6.9 6.2 95   2 10 24.1 100.40     LegendNANA
08:00 7.1 6.4 95   1 9 19.3 100.41     Rain
09:00 8.1 7.2 94   36 3 24.1 100.39     Rain
10:00 8.5 7.2 91   33 7 24.1 100.39     LegendNANA
11:00 8.6 7.0 90   35 9 24.1 100.39     Rain
12:00 8.7 7.0 89   1 7 24.1 100.41     LegendNANA
13:00 11.5 8.0 79   36 11 24.1 100.40     LegendNANA
14:00 12.6 8.1 74   8 7 24.1 100.39     Mostly Cloudy
15:00 12.8 8.9 77   5 8 24.1 100.39     LegendNANA
16:00 13.1 8.1 72   8 10 24.1 100.38     LegendNANA
17:00 13.8 8.3 70   10 9 24.1 100.37     Mostly Cloudy
18:00 14.0 9.5 74   8 8 24.1 100.38     LegendNANA
19:00 13.0 9.5 79   9 10 24.1 100.38     LegendNANA
20:00 10.3 8.9 91   34 10 24.1 100.42     Cloudy
21:00 10.3 8.8 90   15 8 24.1 100.41     LegendNANA
22:00 9.9 8.4 90   15 5 24.1 100.42     LegendNANA
23:00 9.2 8.3 94   27 9 24.1 100.43     Cloudy

Notes on Data Quality.

Legend

  • E = Estimated
  • M = Missing
  • NA = Not Available*
  • [empty] = Indicates an unobserved value
Date modified: